ELECTRON KICK STAGE R/B

Last updated on Sun Jul 26 2026 00:02:05 GMT+0000 (Coordinated Universal Time)

1 69703U 26146C 26206.56566414 .00004359 00000+0 31491-3 0 9998 2 69703 41.9885 315.5098 0008162 99.8926 260.2822 15.05011291 4341
UTC large
Height (km)
Speed (km/s)
/
Latitude / Longitude
Inclination (degrees)
Orbital Period (minutes)
Azimuth
Elevation
Range (km)
Doppler Factor

Next 0 passes for location: London (51.5072 / 0.1276)

No passes found over London.
ELECTRON KICK STAGE R/B